Theta_e
336 330 327 327 329 329 329 328 329 327 327 328 329 328 329 328 327 326 326 326 325 323 323 324 324 323 320 318 317 315 312 311 308 309 311 313 313 314 316 317 320 321 324
336 331 329 329 329 329 329 328 328 327 328 329 330 329 328 328 328 326 325 326 325 324 324 323 324 325 321 318 316 315 313 312 310 308 311 314 312 316 316 315 317 321 322
336 331 330 331 331 330 330 329 328 328 328 330 328 327 327 327 326 326 325 325 325 324 324 323 323 321 319 318 317 316 315 316 313 314 315 319 318 316 315 316 316 317 320
335 332 330 331 333 332 331 330 329 328 327 327 326 326 326 327 327 327 326 325 325 325 324 323 323 321 320 319 318 318 317 315 313 314 316 316 316 317 314 313 313 316 316
335 333 331 332 334 332 332 331 330 329 329 327 327 327 328 329 330 326 326 326 323 323 323 323 322 325 329 325 320 319 316 315 314 316 315 315 314 313 311 314 313 314 316
336 333 333 333 332 329 329 330 330 328 329 328 327 327 327 329 327 328 329 321 321 320 319 320 320 325 325 328 329 328 323 316 315 315 316 314 313 313 314 312 312 312 310
336 334 334 334 334 332 331 330 328 329 328 328 327 328 327 326 324 324 328 323 321 318 317 317 318 322 324 321 323 324 323 324 324 317 313 313 312 314 313 312 313 312 312
332 334 335 334 332 332 331 330 329 330 328 328 327 326 326 327 322 322 325 323 319 318 317 317 316 315 317 318 316 313 312 312 313 314 314 315 315 316 314 315 314 314 315
332 333 335 334 331 331 329 330 329 329 328 328 326 324 325 326 320 318 319 319 317 315 314 314 316 315 317 320 311 309 309 309 316 318 318 317 317 318 319 317 313 312 310
333 332 333 334 333 331 330 330 329 329 328 327 324 324 324 326 320 316 316 316 313 312 313 314 315 313 313 311 307 305 308 308 311 312 312 314 316 316 319 317 315 311 311
331 331 331 330 330 330 329 330 330 327 324 323 323 325 326 324 322 315 313 314 313 313 311 309 310 311 307 307 308 304 305 308 311 312 312 311 313 314 314 316 317 315 312
330 329 326 329 333 331 329 325 321 323 325 322 322 322 321 321 314 312 311 312 314 310 308 308 307 306 304 306 306 309 310 311 311 310 308 309 310 311 313 315 317 318 322
323 322 323 323 327 327 326 319 318 319 324 322 320 317 316 314 309 307 307 308 310 307 307 306 306 303 303 305 307 309 309 308 307 304 306 308 310 310 312 315 317 319 321
323 322 321 321 320 322 323 322 322 323 322 319 318 316 313 308 306 305 305 304 307 306 304 301 307 306 305 305 302 302 306 307 303 301 303 307 308 309 309 313 313 315 317
320 320 320 322 323 321 310 308 316 310 311 318 315 313 310 306 305 302 300 302 301 299 301 303 302 299 299 297 296 299 303 299 297 299 301 303 304 306 308 311 312 312 313
317 317 316 318 319 317 311 305 301 299 297 297 301 305 301 301 299 297 295 295 293 294 301 300 298 296 293 292 292 293 296 299 299 298 299 301 300 302 306 308 310 309 311
315 315 315 316 317 315 309 305 303 302 297 295 295 297 299 298 296 296 294 294 295 298 300 295 293 292 291 290 290 290 291 294 297 298 296 297 298 299 304 305 307 307 309
316 313 317 318 316 312 309 308 306 303 301 301 297 298 296 296 296 297 296 298 298 296 296 294 289 288 288 288 288 288 290 291 292 292 293 294 295 296 301 302 304 304 306
318 317 316 315 316 312 310 307 305 304 302 301 300 299 299 297 296 297 297 298 295 292 293 290 289 288 288 287 287 287 289 289 290 289 291 292 293 294 295 299 302 303 304
315 315 315 314 313 311 311 309 307 305 303 301 301 301 299 300 299 298 297 297 294 293 291 291 290 289 288 286 284 285 287 287 287 287 288 289 292 293 293 295 298 300 302
314 313 315 313 311 310 310 309 308 306 304 302 302 300 298 299 297 296 296 296 296 295 293 292 291 289 284 283 284 285 285 285 285 286 287 289 291 291 293 294 295 297 299
314 313 312 310 310 311 310 309 306 306 305 302 299 299 296 298 296 296 296 297 301 298 294 290 287 284 283 283 283 283 283 283 284 285 286 289 289 290 292 293 293 294 295
312 311 311 310 311 309 308 306 306 306 307 305 302 301 300 297 296 295 296 296 293 291 289 287 285 283 283 282 282 282 282 282 282 283 285 288 288 289 290 290 291 292 292
310 310 310 310 311 308 306 306 304 304 304 301 300 301 300 298 296 296 296 294 291 289 288 286 284 283 282 281 281 280 280 281 282 283 286 287 287 288 289 289 290 290 291
307 307 306 308 307 303 301 299 299 299 302 301 300 299 298 297 296 296 295 291 290 288 287 285 283 282 281 280 280 280 282 282 284 286 286 287 287 288 288 288 289 289 290
304 305 304 305 305 303 300 301 300 298 297 298 299 298 298 298 297 296 294 290 289 288 287 285 284 283 283 282 281 283 282 282 285 285 285 286 286 286 287 288 289 288 288
Wind_Speed
14 12 10 6 7 7 7 7 7 6 7 7 7 6 6 5 5 4 5 5 6 6 5 6 7 5 4 4 4 3 4 4 4 4 4 3 5 7 10 7 9 10 9
15 13 11 9 8 9 8 8 7 8 7 8 7 6 6 6 5 6 6 5 6 6 7 6 8 4 7 6 5 7 5 5 4 8 4 4 6 9 11 12 10 9 11
15 15 12 12 11 12 10 8 7 7 7 6 6 7 7 6 6 6 6 6 6 7 7 6 7 5 6 5 7 7 5 5 6 6 7 7 9 8 9 9 10 10 10
16 17 17 15 12 11 11 10 9 7 6 6 6 7 6 6 6 6 6 6 6 6 6 6 7 7 8 7 6 8 7 6 5 6 7 10 9 9 6 8 10 9 10
19 18 18 15 11 10 11 11 10 7 8 6 6 6 5 5 5 6 6 6 6 6 6 6 7 8 13 11 4 7 7 6 6 7 8 9 10 8 8 8 12 12 12
18 13 7 4 7 5 6 10 9 7 7 8 7 7 6 5 8 9 8 6 6 6 7 6 6 9 9 11 12 16 10 6 8 7 9 11 12 10 9 8 11 13 15
10 9 11 11 18 21 15 10 10 11 6 7 8 7 7 7 9 9 8 5 6 5 6 6 7 4 8 6 8 8 9 11 12 7 9 11 10 12 12 13 14 14 17
12 15 19 23 19 16 16 12 8 7 8 8 9 6 5 5 8 9 8 5 5 5 6 6 6 7 7 6 5 4 6 6 7 6 8 11 11 14 13 14 17 19 16
16 18 18 21 22 14 11 10 7 5 5 7 3 6 5 5 7 11 6 4 5 5 4 4 4 6 9 5 3 5 7 7 7 12 14 19 23 26 23 14 15 16 16
9 10 11 10 11 10 10 8 5 5 7 5 6 6 8 7 9 11 7 3 3 3 4 4 6 5 5 4 3 2 7 7 9 11 12 13 14 16 24 15 16 17 15
6 6 6 4 6 6 5 5 7 1 5 6 7 5 6 5 6 8 7 4 3 2 3 3 4 3 1 4 3 3 5 7 11 8 9 9 10 11 12 13 18 17 16
8 8 8 8 7 7 10 7 9 13 11 3 3 5 4 5 4 2 7 5 3 3 4 2 3 3 2 4 4 7 9 8 5 7 8 10 9 11 14 17 22 20 11
8 7 6 6 6 7 8 7 9 10 12 6 5 4 3 2 3 7 6 4 4 2 2 3 6 4 1 4 6 8 8 4 5 6 8 9 8 11 17 17 22 21 6
8 5 5 2 5 4 4 4 5 7 8 6 4 4 3 3 3 1 1 2 2 0 3 2 4 3 3 3 4 5 4 4 5 6 8 10 9 9 12 13 17 14 9
7 5 3 2 2 5 6 3 1 1 4 4 3 4 5 4 3 3 2 1 1 1 0 3 2 3 3 4 4 5 4 4 4 6 7 9 9 9 11 12 13 13 10
5 3 3 3 3 3 4 4 9 4 5 4 7 5 3 7 4 4 7 8 7 6 2 3 2 2 2 4 4 5 4 7 5 5 6 7 7 9 10 11 11 13 14
4 5 4 4 4 4 4 4 3 5 11 10 9 10 8 6 6 6 5 8 7 7 3 3 2 1 2 3 3 3 4 5 8 6 6 7 7 8 11 10 10 10 13
5 8 5 5 6 6 7 7 6 6 5 3 5 4 6 6 7 6 7 6 4 5 2 2 1 1 1 2 3 3 4 5 4 6 7 7 7 7 8 9 9 8 9
3 4 4 3 4 6 6 6 5 5 5 4 2 2 2 6 8 8 7 2 2 1 2 3 2 1 1 2 3 4 4 4 4 5 6 6 7 6 7 7 8 11 10
2 8 6 5 6 5 5 6 5 4 5 4 4 3 2 4 2 1 2 2 2 2 2 2 2 1 1 2 3 3 4 4 5 5 5 6 7 6 6 7 7 9 8
3 3 6 4 5 5 5 5 4 5 5 4 3 3 6 3 3 2 2 2 3 3 3 3 2 2 1 2 2 2 3 4 4 5 5 5 6 6 7 6 6 7 7
2 4 4 4 4 5 4 5 5 4 4 4 3 4 8 3 3 3 3 3 3 3 3 4 3 3 2 1 1 2 3 4 4 5 5 5 5 6 6 6 7 6 8
3 4 4 3 2 5 3 4 5 5 5 5 5 4 4 4 4 4 4 2 4 4 4 4 4 3 2 2 1 1 2 3 4 4 5 5 5 5 5 5 6 5 7
3 4 4 4 3 4 4 5 5 6 5 5 6 5 5 4 5 5 4 4 5 4 4 4 4 5 4 3 1 1 2 3 3 4 5 5 5 6 5 5 5 7 6
3 2 3 5 5 5 5 5 4 5 5 6 6 5 6 5 5 5 4 4 5 5 5 4 3 5 6 5 4 3 4 4 3 4 3 4 6 7 5 4 4 5 8
3 2 4 4 3 3 4 5 6 6 6 5 5 6 7 7 6 5 5 5 5 5 5 4 5 6 6 4 4 1 3 4 4 4 3 4 5 5 4 6 7 5 6
Wind_Direction
181 168 161 177 167 181 174 179 189 180 182 188 196 206 214 228 237 232 245 256 235 237 246 227 240 218 212 211 212 206 215 188 234 280 249 270 285 287 300 295 288 290 287
179 169 169 173 174 184 189 195 189 197 188 193 196 202 215 228 239 236 251 248 239 244 246 232 242 206 229 216 203 222 223 214 207 266 244 285 251 293 287 288 293 289 289
174 174 173 184 189 194 188 197 198 200 199 196 194 199 211 226 233 244 241 255 250 244 247 235 253 234 240 223 218 224 225 232 220 242 276 285 285 278 280 281 279 281 278
180 180 183 187 196 197 188 193 199 198 193 213 208 207 211 231 235 242 244 252 259 253 257 236 242 233 238 238 228 231 235 236 237 239 264 278 274 275 265 281 283 274 279
188 187 189 180 193 201 194 200 200 177 182 219 231 232 229 230 236 231 242 248 246 272 271 258 249 250 255 240 221 244 228 240 243 257 262 277 277 282 273 284 288 286 281
194 188 56 62 38 344 279 226 195 175 197 172 223 233 222 231 233 232 224 229 241 248 265 289 280 281 275 278 256 246 243 228 246 254 268 270 277 276 277 280 288 292 290
178 153 130 141 185 217 224 222 209 208 181 179 213 219 224 228 229 241 233 224 233 233 247 265 280 264 268 267 278 280 269 267 254 252 262 263 268 273 283 286 283 280 278
152 150 153 173 228 220 219 211 206 190 195 189 218 209 229 252 252 250 250 229 232 242 242 244 257 282 278 272 274 280 276 278 275 262 239 262 270 275 271 275 280 277 273
164 170 187 185 210 214 208 205 197 172 194 202 169 187 209 293 299 284 257 198 234 255 264 268 280 282 290 284 280 299 299 291 283 295 286 277 275 277 279 287 289 287 279
166 180 187 207 216 208 203 189 173 180 212 156 136 163 210 214 231 239 207 185 244 268 296 288 285 286 323 4 309 318 297 294 309 304 300 293 291 289 289 280 287 283 272
116 109 110 129 123 86 62 14 339 278 130 180 168 190 238 252 248 244 198 167 221 254 268 301 298 289 146 315 284 257 252 292 303 297 295 292 290 293 295 301 297 290 269
125 112 111 106 110 102 104 101 51 337 288 203 218 256 265 266 247 185 174 180 175 213 264 251 283 217 231 280 298 295 313 310 302 304 305 304 304 303 305 313 312 304 283
97 112 124 139 146 143 130 124 137 198 249 226 213 233 230 146 88 81 97 101 117 198 238 264 270 183 344 296 316 328 333 318 322 313 305 297 302 297 304 318 324 328 318
121 141 171 209 110 123 112 157 188 198 220 226 195 216 187 146 153 156 56 42 42 25 315 288 151 119 31 333 351 335 328 333 330 309 306 304 302 311 318 326 325 335 331
153 186 228 271 152 93 65 42 341 103 254 205 194 170 163 164 190 175 182 243 207 101 1 95 61 28 354 345 345 327 333 334 333 319 312 311 320 324 324 325 331 338 354
175 124 111 110 93 129 129 104 55 36 34 99 118 124 67 105 101 355 285 246 201 177 93 92 60 14 3 337 336 324 328 333 316 314 314 315 318 326 325 329 334 347 350
176 189 186 169 159 137 129 131 132 37 61 63 82 99 95 114 73 65 69 96 111 119 78 79 106 53 333 334 337 326 310 315 320 326 320 319 321 328 331 332 337 345 345
217 196 191 183 158 148 162 167 159 165 143 125 38 80 120 114 80 105 89 72 56 39 78 110 120 93 2 349 338 328 320 333 336 335 325 330 331 329 329 339 334 341 319
178 186 181 124 125 148 153 154 150 148 144 140 148 170 148 94 72 56 56 91 118 114 129 109 137 137 74 336 336 328 332 339 335 323 323 328 326 332 332 331 336 340 347
180 130 134 129 135 138 151 147 151 149 140 160 176 182 114 70 58 49 52 84 116 136 135 135 184 147 36 1 340 333 346 353 345 336 332 328 327 331 335 330 344 349 349
144 158 144 136 148 146 138 148 145 151 163 175 185 157 148 150 192 186 175 187 177 174 169 183 190 123 70 26 16 15 7 348 339 333 330 330 329 334 338 341 344 355 353
213 175 159 152 145 142 143 135 149 165 162 167 166 170 160 145 167 204 213 240 201 152 148 144 125 121 112 109 94 50 13 352 340 337 333 333 336 341 341 357 360 3 9
164 136 133 138 161 130 142 153 163 178 188 183 176 167 162 168 184 209 208 168 136 127 126 137 140 138 148 147 118 96 29 334 314 312 326 339 348 352 350 352 357 0 10
179 163 162 163 179 196 176 178 183 185 172 163 167 173 171 180 189 201 203 162 145 142 152 158 161 161 167 188 213 239 276 298 296 301 319 344 355 358 10 7 356 1 13
161 185 194 184 183 176 171 186 188 180 177 174 177 175 170 187 188 194 185 174 156 156 170 163 168 172 178 182 199 245 303 309 305 308 346 10 21 19 13 14 9 10 22
114 146 195 195 220 196 198 201 189 179 181 184 177 178 180 191 190 183 174 167 167 175 168 175 183 186 185 189 179 204 313 348 11 5 36 32 32 23 24 27 25 25 26